Concord, CA

10:07 PM PST on February 19, 2018 (GMT -0800)
Buchanan

Weather History for KCCR - July, 2013

Change the Weather History Date:

Saturday, July 13, 2013

  Actual Average Record
Temperature  
Mean Temperature 72 °F 72 °F  
Max Temperature 90 °F 87 °F 99 °F (2005)
Min Temperature 54 °F 58 °F 54 °F (2012)
Degree Days  
Heating Degree Days 0    
Month to date heating degree days 0  
Since 1 June heating degree days 11  
Since 1 July heating degree days 0  
Cooling Degree Days 7    
Month to date cooling degree days 118  
Year to date cooling degree days 377  
Since 1 June cooling degree days 285  
Growing Degree Days 22 (Base 50)    
Moisture  
Dew Point 49 °F    
Average Humidity 56    
Maximum Humidity 93    
Minimum Humidity 19    
Precipitation  
Precipitation 0.00 in - 0.00 in (2018)
Month to date precipitation 0.00  
Year to date precipitation 2.06  
Since 1 July precipitation 0.00  
Sea Level Pressure  
Sea Level Pressure 29.87 in    
Wind  
Wind Speed 8 mph (NW)    
Max Wind Speed 18 mph    
Max Gust Speed 24 mph    
Visibility 10 miles    
Events      
T = Trace of Precipitation, MM = Missing Value Source: NWS Daily Summary

Daily Weather History Graph

Daily Weather History Graph

Search for Another Location

Airport or City:

Trip Planner

Search our weather history database for the weather conditions in past years. The results will help you decide how hot, cold, wet, or windy it might be!

Date:

Astronomy

Jul. 13, 2013 Rise Set
Actual Time 5:56 AM PDT 8:31 PM PDT
Civil Twilight 5:25 AM PDT 9:01 PM PDT
Nautical Twilight 4:47 AM PDT 9:39 PM PDT
Astronomical Twilight 4:05 AM PDT 10:22 PM PDT
Moon 11:11 AM PDT (7/13) 11:21 PM PDT (7/13)
Length of Visible Light 15h 35m
Length of Day
14h 34m
Waxing Crescent, 26% of the Moon is Illuminated
Jul 13
Waxing Crescent
Jul 15
First Quarter
Jul 22
Full
Jul 29
Last Quarter
Aug 6
New

Hourly Weather History & Observations

Time (PDT) Temp. Dew Point Humidity Pressure Visibility Wind Dir Wind Speed Gust Speed Precip Events Conditions
12:53 AM 57.0 °F 48.9 °F 74% 29.85 in 10.0 mi NW 3.5 mph - N/A   Clear
1:53 AM 57.0 °F 48.0 °F 72% 29.84 in 10.0 mi NW 5.8 mph - N/A   Clear
2:53 AM 55.9 °F 48.9 °F 77% 29.84 in 10.0 mi West 3.5 mph - N/A   Clear
3:53 AM 55.0 °F 50.0 °F 83% 29.85 in 10.0 mi Calm Calm - N/A   Clear
4:53 AM 54.0 °F 51.1 °F 90% 29.85 in 10.0 mi NNW 4.6 mph - N/A   Clear
5:53 AM 55.0 °F 51.1 °F 86% 29.86 in 10.0 mi NNW 3.5 mph - N/A   Clear
6:53 AM 55.9 °F 52.0 °F 87% 29.88 in 10.0 mi North 3.5 mph - N/A   Clear
7:53 AM 61.0 °F 52.0 °F 72% 29.89 in 10.0 mi Calm Calm - N/A   Clear
8:53 AM 64.0 °F 53.1 °F 67% 29.90 in 10.0 mi NNW 9.2 mph - N/A   Clear
9:53 AM 69.1 °F 53.1 °F 57% 29.89 in 10.0 mi NW 10.4 mph - N/A   Clear
10:53 AM 71.1 °F 53.1 °F 53% 29.90 in 10.0 mi NW 10.4 mph - N/A   Clear
11:53 AM 75.9 °F 53.1 °F 45% 29.90 in 10.0 mi NNW 11.5 mph - N/A   Clear
12:53 PM 78.1 °F 52.0 °F 40% 29.89 in 10.0 mi NNW 11.5 mph - N/A   Clear
1:53 PM 84.0 °F 48.9 °F 29% 29.87 in 10.0 mi NNW 10.4 mph - N/A   Clear
2:53 PM 86.0 °F 45.0 °F 24% 29.86 in 10.0 mi NW 17.3 mph - N/A   Clear
3:53 PM 88.0 °F 45.0 °F 22% 29.84 in 10.0 mi NW 15.0 mph - N/A   Clear
4:53 PM 89.1 °F 42.1 °F 19% 29.84 in 10.0 mi WNW 10.4 mph - N/A   Clear
5:53 PM 86.0 °F 51.1 °F 30% 29.83 in 10.0 mi NW 11.5 mph - N/A   Clear
6:53 PM 82.9 °F 51.1 °F 33% 29.83 in 10.0 mi WNW 11.5 mph - N/A   Clear
7:53 PM 77.0 °F 48.9 °F 37% 29.84 in 10.0 mi WNW 9.2 mph - N/A   Clear
8:53 PM 73.0 °F 50.0 °F 44% 29.86 in 10.0 mi WSW 4.6 mph - N/A   Clear
9:53 PM 69.1 °F 48.0 °F 47% 29.88 in 10.0 mi SSW 9.2 mph - N/A   Clear
10:53 PM 66.0 °F 46.0 °F 48% 29.89 in 10.0 mi South 9.2 mph - N/A   Clear
11:53 PM 64.9 °F 44.1 °F 47% 29.90 in 10.0 mi SW 9.2 mph - N/A   Clear